Location: Unspecified
(0.0000°N, 0.0000°E)
Time: 19:02:28
(UTC+00:00)

Vanguard 3 - Pass Details

Date: 23 November 2019
Orbit: 508 x 3263 km, 33.3° (Epoch: 08 December)

Event Time Altitude Azimuth Distance (km) Brightness Sun altitude
Rises 23:14:10 0° 270° (W) 4,167 - -68.1°
Reaches altitude 10° 23:20:58 10° 226° (SW) 2,431 - -68.6°
Maximum altitude 23:21:20 10° 223° (SW) 2,390 - -68.7°
Drops below altitude 10° 23:21:41 10° 219° (SW) 2,358 - -68.7°
Sets 23:26:37 0° 169° (S) 2,835 - -69.0°
